Location: Limerick
(52.6650°N, 8.6230°W)
Time: 06:01:45
(UTC+00:00)

ISS - Pass Details

Date: 04 December 2019
Orbit: 411 x 421 km, 51.6° (Epoch: 15 December)

Event Time Altitude Azimuth Distance (km) Brightness Sun altitude
Rises 18:57:21 0° 280° (W) 2,362 1.3 -22.4°
Reaches altitude 10° 18:59:29 10° 274° (W) 1,499 0.1 -22.7°
Enters shadow 19:02:16 42° 226° (SW) 608 -2.7 -23.1°
